FW4023 Weather Reports


Display with metric or nautical units.
time (UTC)temp
F
wind
direction
speed
MPH
gust
MPH
rain 1hr
in
rain 24hr
in
rain mn
in
humidity
%
barometer
mb
20260506123004 56 11 0.0 2.0 0.00 0.00 0.00 73 1029.4
20260506122003 56 336 0.0 1.0 0.00 0.00 0.00 73 1029.4
20260506121003 56 336 0.0 2.0 0.00 0.00 0.00 73 1029.3
20260506120004 56 336 1.0 3.0 0.00 0.00 0.00 73 1029.2
20260506115003 57 283 1.0 3.0 0.00 0.00 0.00 73 1029.2
20260506114003 57 237 1.0 3.0 0.00 0.00 0.00 73 1029.1
20260506113003 57 210 1.0 3.0 0.00 0.00 0.00 72 1029.0
20260506112025 58 210 0.0 1.0 0.00 0.00 0.00 71 1029.0
20260506111003 58 210 0.0 2.0 0.00 0.00 0.00 71 1028.9
20260506110004 58 210 1.0 2.0 0.00 0.00 0.00 70 1028.8
20260506105003 59 210 1.0 2.0 0.00 0.00 0.00 69 1028.9
20260506104025 60 210 1.0 2.0 0.00 0.00 0.00 68 1028.8
20260506103003 60 210 0.0 1.0 0.00 0.00 0.00 67 1028.8
20260506102024 61 210 1.0 2.0 0.00 0.00 0.00 67 1028.7
20260506101003 61 210 1.0 1.0 0.00 0.00 0.00 66 1028.6
20260506100004 62 210 0.0 2.0 0.00 0.00 0.00 65 1028.5
20260506095025 63 210 1.0 2.0 0.00 0.00 0.00 64 1028.4
20260506094004 63 210 0.0 2.0 0.00 0.00 0.00 62 1028.4
20260506093025 64 210 0.0 2.0 0.00 0.00 0.00 61 1028.3
20260506092004 65 210 0.0 3.0 0.00 0.00 0.00 60 1028.2
20260506091004 65 170 1.0 6.0 0.00 0.00 0.00 58 1028.1
20260506090025 66 180 1.0 4.0 0.00 0.00 0.00 57 1028.1
20260506085004 67 131 1.0 4.0 0.00 0.00 0.00 57 1028.1
20260506084004 67 246 1.0 6.0 0.00 0.00 0.00 56 1028.0
20260506083004 67 192 2.0 7.0 0.00 0.00 0.00 56 1028.0
20260506082025 68 202 3.0 6.0 0.00 0.00 0.00 55 1028.0
20260506081004 68 163 2.0 7.0 0.00 0.00 0.00 56 1027.9
20260506073025 68 123 2.0 9.0 0.00 0.00 0.00 57 1027.9
20260506072004 68 109 2.0 9.0 0.00 0.00 0.00 58 1028.0
20260506071004 68 90 1.0 4.0 0.00 0.00 0.00 57 1027.9
20260506062004 68 146 4.0 10.0 0.00 0.00 0.00 58 1028.0
20260506061024 68 103 3.0 7.0 0.00 0.00 0.00 59 1028.1
20260506051003 67 197 3.0 8.0 0.00 0.00 0.00 61 1028.3
20260506045025 67 121 2.0 9.0 0.00 0.00 0.00 63 1028.4
20260506044025 66 118 3.0 10.0 0.00 0.00 0.00 62 1028.6
20260506043003 66 63 3.0 10.0 0.00 0.00 0.00 63 1028.8
20260506042004 66 77 4.0 12.0 0.00 0.00 0.00 63 1029.0
20260506041004 66 63 2.0 9.0 0.00 0.00 0.00 65 1029.1
20260506040004 65 133 3.0 11.0 0.00 0.00 0.00 65 1029.2
20260506035004 65 91 3.0 9.0 0.00 0.00 0.00 66 1029.3
20260506034004 64 60 3.0 12.0 0.00 0.00 0.00 67 1029.4
20260506033004 64 357 3.0 11.0 0.00 0.00 0.00 68 1029.6
20260506032003 64 120 3.0 13.0 0.00 0.00 0.00 68 1029.7
20260506031003 63 355 3.0 7.0 0.00 0.00 0.00 69 1029.8
20260506030004 63 59 3.0 9.0 0.00 0.00 0.00 70 1029.9
20260506025003 62 93 4.0 14.0 0.00 0.00 0.00 71 1029.9
20260506024003 62 45 3.0 9.0 0.00 0.00 0.00 73 1029.9
20260506023003 61 173 2.0 7.0 0.00 0.00 0.00 74 1029.9
20260506022024 60 325 2.0 6.0 0.00 0.00 0.00 75 1030.0
20260506021003 60 320 2.0 9.0 0.00 0.00 0.00 76 1030.1
20260506020004 59 122 2.0 10.0 0.00 0.00 0.00 77 1030.1
20260506015003 58 131 2.0 8.0 0.00 0.00 0.00 79 1030.2
20260506014003 58 119 2.0 9.0 0.00 0.00 0.00 80 1030.1
20260506013004 57 102 3.0 12.0 0.00 0.00 0.00 81 1030.2
20260506012004 56 93 2.0 9.0 0.00 0.00 0.00 84 1030.2
20260506011003 55 105 2.0 9.0 0.00 0.00 0.00 85 1030.1
20260506010005 54 188 2.0 6.0 0.00 0.00 0.00 86 1030.2
20260506005024 54 212 2.0 8.0 0.00 0.00 0.00 87 1030.1
20260506004003 53 169 2.0 5.0 0.00 0.00 0.00 87 1030.0
20260506003004 52 90 1.0 7.0 0.00 0.00 0.00 88 1029.8
20260506002025 52 191 1.0 7.0 0.00 0.00 0.00 88 1029.7
20260506001004 51 76 1.0 4.0 0.00 0.01 0.00 88 1029.6
20260506000004 50 167 1.0 5.0 0.00 0.01 0.00 88 1029.5
20260505235004 50 209 1.0 4.0 0.00 0.01 0.00 88 1029.4
20260505234004 50 237 1.0 5.0 0.00 0.01 0.00 88 1029.3
20260505233004 50 246 1.0 3.0 0.00 0.01 0.00 87 1029.2
20260505232004 50 354 1.0 4.0 0.00 0.01 0.00 87 1029.1
20260505231004 50 42 1.0 3.0 0.00 0.01 0.00 87 1029.0
20260505230025 50 67 1.0 3.0 0.00 0.01 0.00 87 1028.9
20260505225004 50 3 1.0 4.0 0.00 0.01 0.00 87 1028.9
20260505224004 50 93 1.0 5.0 0.00 0.01 0.00 86 1028.8
20260505223025 50 61 1.0 4.0 0.00 0.01 0.00 86 1028.7
20260505222004 50 82 1.0 7.0 0.00 0.01 0.00 86 1028.6
20260505221025 50 45 1.0 4.0 0.00 0.01 0.00 86 1028.4
20260505220004 50 50 1.0 6.0 0.00 0.01 0.00 85 1028.3
20260505215004 50 352 1.0 6.0 0.00 0.01 0.00 85 1028.3
20260505214004 50 116 1.0 8.0 0.00 0.01 0.00 85 1028.2
20260505213004 51 272 1.0 4.0 0.00 0.01 0.00 85 1028.2
20260505212004 51 88 1.0 3.0 0.00 0.01 0.00 85 1028.2
20260505211004 51 70 0.0 3.0 0.00 0.01 0.00 85 1028.2
20260505210004 51 33 1.0 3.0 0.00 0.01 0.00 84 1028.1
20260505205003 51 41 1.0 6.0 0.00 0.01 0.00 84 1028.0
20260505204003 51 265 1.0 3.0 0.00 0.01 0.00 84 1027.9
20260505203003 51 246 1.0 6.0 0.00 0.01 0.00 84 1027.9
20260505202004 51 344 1.0 6.0 0.00 0.01 0.00 83 1027.8
20260505201003 51 332 1.0 2.0 0.00 0.01 0.00 83 1027.8
20260505200004 52 3 1.0 6.0 0.00 0.01 0.00 82 1027.8
20260505195003 52 323 1.0 7.0 0.00 0.01 0.00 82 1027.7
20260505194003 52 273 1.0 4.0 0.00 0.01 0.00 82 1027.8
20260505193003 52 5 1.0 4.0 0.00 0.01 0.00 81 1027.8
20260505192004 52 174 1.0 6.0 0.00 0.01 0.00 81 1027.7
20260505191004 52 343 1.0 4.0 0.00 0.01 0.00 80 1027.7
20260505190004 52 96 1.0 3.0 0.00 0.01 0.00 80 1027.6
20260505185004 52 124 1.0 4.0 0.00 0.01 0.00 79 1027.5
20260505184004 53 67 1.0 7.0 0.00 0.01 0.00 79 1027.5
20260505183004 53 81 1.0 4.0 0.00 0.01 0.00 78 1027.5
20260505182003 53 52 1.0 3.0 0.00 0.01 0.00 78 1027.5
20260505181024 53 26 1.0 4.0 0.00 0.01 0.00 78 1027.4
20260505180004 53 90 1.0 4.0 0.00 0.01 0.00 77 1027.4
20260505175003 53 135 1.0 8.0 0.00 0.01 0.00 77 1027.3
20260505174003 53 318 1.0 4.0 0.00 0.01 0.00 77 1027.3
20260505173004 53 324 1.0 5.0 0.00 0.01 0.00 77 1027.3
20260505172025 53 340 1.0 5.0 0.00 0.01 0.00 77 1027.3
20260505171003 54 1 1.0 4.0 0.00 0.01 0.00 77 1027.2
20260505170003 54 30 1.0 3.0 0.00 0.01 0.00 77 1027.1
20260505165003 54 28 1.0 3.0 0.00 0.01 0.00 77 1027.2
20260505164004 54 321 2.0 5.0 0.00 0.01 0.00 77 1027.0
20260505163004 54 349 1.0 5.0 0.00 0.01 0.00 77 1027.0
20260505162003 54 277 1.0 3.0 0.00 0.01 0.00 77 1027.0
20260505161004 54 262 0.0 3.0 0.00 0.01 0.00 77 1026.9
20260505153004 54 45 2.0 4.0 0.00 0.01 0.01 77 1026.9
20260505152004 54 38 1.0 5.0 0.00 0.01 0.01 77 1026.9
20260505151004 54 22 1.0 4.0 0.00 0.01 0.01 77 1026.8
20260505125004 54 22 1.0 3.0 0.00 0.01 0.01 83 1026.5
20260505124004 54 22 1.0 2.0 0.00 0.01 0.01 84 1026.5